Home > Weather > Albany > Past weeks

Flag for U.S.A. Weather for the Past 2 Weeks in Albany, New York, U.S.A.

Now
31 °F

Mostly cloudy.


Feels Like: 23 °F
Forecast: 13 / 26 °F
Wind: 9 mph from Northwest

Location: Albany County Airport

Current Time: Feb 10, 2016 at 7:54:28 PM

Latest Report: Feb 10, 2016 at 6:51 PM


Visibility: 10 mi

Pressure: 29.67 "Hg

Humidity: 69%

Dew point: 22 °F

Location of AlbanyLocation

Historic Weather in Albany — Graph

°F

Albany Temperature Yesterday

Maximum temperature yesterday: 32 °F (at 2:51 PM)
Minimum temperature yesterday: 24 °F (at 5:51 AM)
Average temperature yesterday: 27 °F

High & Low Weather Summary for the Past Weeks

 TemperatureHumidityPressure
High57 °F (Feb 3, 6:51 PM)90% (Feb 3, 2:51 PM)30.37 "Hg (Feb 3, 2:51 PM)
Low18 °F (Jan 28, 1:51 AM)18% (Feb 8, 2:51 PM)29.46 "Hg (Jan 29, 12:51 PM)
Average36 °F60%29.94 "Hg
* Reported Jan 26 5:51 PM — Feb 10 5:51 PM, Albany, Weather by CustomWeather, © 2016

Note: Actual official high and low records may vary slightly from our data, if they occured in-between our weather recording intervals... More about our weather records

Advertising

Albany Weather History for the Previous 24 Hours

 ConditionsComfort  
Time TempWeatherWind HumidityBarometerVisibility
5:51 PM
Wed, Feb 10
32 °FPartly cloudy.14 mph64%29.65 "Hg10 mi
4:51 PM35 °FPartly sunny.14 mph59%29.61 "Hg10 mi
3:51 PM34 °FBroken clouds.9 mph64%29.59 "Hg10 mi
2:51 PM35 °FMostly cloudy.9 mph61%29.57 "Hg10 mi
1:51 PM37 °FMostly cloudy.14 mph52%29.55 "Hg10 mi
12:51 PM37 °FPartly sunny.13 mph52%29.55 "Hg10 mi
11:51 AM36 °FBroken clouds.5 mph75%29.57 "Hg10 mi
10:51 AM33 °FBroken clouds.7 mph82%29.59 "Hg10 mi
9:55 AM32 °FIce fog.5 mph85%29.58 "Hg3 mi
9:03 AM30 °FLight snow. Ice fog.6 mph89%29.58 "Hg1 mi
8:51 AM30 °FLight snow. Ice fog.5 mph89%29.59 "Hg1 mi
7:51 AM29 °FLight snow. Ice fog.5 mph89%29.58 "Hg1 mi
6:58 AM29 °FLight snow. Ice fog.7 mph89%29.56 "Hg2 mi
5:51 AM29 °FLight snow. Ice fog.5 mph85%29.56 "Hg6 mi
5:01 AM29 °FLight snow. Ice fog.3 mph85%29.55 "Hg5 mi
3:51 AM28 °FLight snow. Ice fog.5 mph85%29.55 "Hg4 mi
2:51 AM28 °FLight snow. Mostly cloudy.6 mph85%29.55 "Hg8 mi
1:51 AM24 °FPassing clouds.No wind88%29.56 "Hg10 mi
12:51 AM27 °FPassing clouds.3 mph81%29.56 "Hg10 mi
11:51 PM
Tue, Feb 9
27 °FPassing clouds.3 mph85%29.57 "Hg10 mi
10:51 PM28 °FLight snow. Mostly cloudy.No wind81%29.59 "Hg10 mi
9:51 PM28 °FMostly cloudy.3 mph85%29.60 "Hg10 mi
8:51 PM28 °FLight snow. Ice fog.No wind85%29.60 "Hg5 mi
7:51 PM28 °FLight snow. Mostly cloudy.3 mph81%29.59 "Hg3 mi
Weather by CustomWeather, © 2016

See weather overviewHow to use our weather pages